Погода в Непрядве

Россия / Тульская область     53°32′38″N   38°16′44″E
темп.,
°C
ветер,
м/с
пор.,
м/с
влажн.,
%
обл.,
%
осадки,
мм/ч
давл.,
гПа
погр.,
м
14 августа, вс
вс1400:00+20св1176100 1.1 102011
03:00+20в117999 1.1 102012
06:00+19вюв1177100 0.1 102015
09:00+20юв2273100 0.2 102077
12:00+22всв2257100 0.0 1020181
15:00+23в236189 0.0 1020282
18:00+22св2563100 0.0 1019172
21:00+21в3556100 0.0 1019110
15 августа, пн
пн1500:00+20всв386384 0.0 1019169
03:00+19всв4106635 0.0 1018206
06:00+17всв410738 0.0 1019207
09:00+23в5753100 0.0 1019429
12:00+27вюв67415 0.0 10181173
15:00+29в67375 0.0 10181887
18:00+27в594322 0.0 1017445
21:00+22всв41152100 0.0 1018203
16 августа, вт
вт1600:00+22в6145095 0.0 1018441
03:00+20в6144336 0.0 1019392
06:00+19вюв5134798 0.0 1019346
09:00+22вюв71242100 0.0 1020523
12:00+27вюв793235 0.0 10191183
15:00+28в7829100 0.0 10181602
18:00+26в4835100 0.0 1017279
21:00+22всв4945100 0.0 1017134
17 августа, ср
ср1700:00+20всв4953100 0.0 1017177
03:00+20всв3655100 0.0 1016132
06:00+21в4114699 0.0 1016238
09:00+24в684194 0.0 1016287
12:00+26в7103788 0.0 1016642
15:00+29в71028100 0.0 10151119
18:00+26в61337100 0.0 1015494
21:00+24всв7164095 0.0 1015460
18 августа, чт
чт1800:00+22в615405 0.0 1015356
03:00+19всв4115014 0.0 1016228
06:00+18всв5125451 0.0 1016242
09:00+24в813426 0.0 1016608
12:00+28в810315 0.0 10151312
15:00+30в8102889 0.0 10151795
18:00+28в61233100 0.0 1015651
21:00+25всв61341100 0.0 1015376